Dewpoint
63 64 69 68 68 69 70 70 71 72 71 70 70 69 70 71 71 71 71 70 70 70 70 70 70 69 69 70 70 70 71 71 71 71 72 72 72 72 72 72 71 69 72
63 65 69 68 68 70 70 71 72 72 71 70 70 69 69 70 70 70 70 70 70 70 69 70 69 69 70 71 70 70 71 71 71 70 71 71 71 72 71 71 71 71 72
63 65 66 68 68 69 70 71 71 71 71 70 69 68 67 68 68 69 68 68 70 70 70 69 69 70 70 70 70 71 70 71 71 70 70 68 69 71 71 72 72 72 72
62 64 66 68 68 68 69 69 70 70 70 69 68 67 67 68 68 68 68 67 67 69 69 69 70 70 70 70 71 70 70 70 70 69 65 65 67 71 71 71 71 71 71
61 64 65 68 68 68 68 69 70 69 69 68 68 67 68 68 67 66 65 67 68 68 68 69 70 70 70 70 71 70 70 69 69 66 64 66 68 70 71 71 71 71 71
61 63 66 67 68 68 68 68 69 69 68 68 67 67 68 68 67 67 67 67 67 67 68 69 70 70 70 70 70 70 69 69 68 65 66 68 67 70 70 70 71 70 70
61 63 64 67 67 67 68 67 67 68 68 68 68 67 68 68 66 67 66 65 64 67 68 69 69 69 69 69 69 69 69 68 65 66 66 68 68 70 70 70 70 70 70
60 61 60 65 66 67 67 66 66 67 67 67 67 67 67 68 68 67 66 66 64 68 68 69 67 66 67 68 68 68 67 66 64 66 66 68 69 69 70 69 69 69 69
59 60 62 62 65 67 67 66 66 66 67 67 65 66 67 67 65 65 66 67 68 67 67 69 68 66 66 68 67 65 66 65 65 66 66 68 68 69 69 69 69 68 68
61 61 62 62 64 65 62 64 66 67 67 66 66 66 65 65 64 64 65 67 68 69 68 68 68 68 67 66 66 65 65 65 65 66 67 67 68 68 68 68 67 67 66
61 62 62 62 62 60 61 65 66 66 65 64 63 63 63 63 63 65 64 65 67 68 68 68 67 66 65 64 64 63 63 64 64 66 66 66 67 66 66 65 66 65 65
60 61 61 62 61 62 63 63 63 62 62 61 61 60 61 62 63 63 61 64 67 68 67 66 65 63 60 59 60 62 62 63 63 62 64 65 64 64 63 63 63 63 62
60 60 61 61 61 62 63 62 61 59 59 59 60 61 61 60 59 61 60 59 57 56 57 60 59 58 57 58 60 59 60 62 62 61 63 63 62 62 60 60 60 59 59
59 59 60 61 60 61 61 60 60 59 58 58 58 59 58 56 54 56 56 55 53 53 52 53 53 54 56 58 58 57 58 58 58 59 60 61 60 60 59 57 57 57 57
58 59 60 61 59 60 59 57 58 58 58 57 56 56 56 53 51 52 51 50 50 52 52 50 51 53 54 56 56 56 55 56 55 56 56 58 59 58 57 56 56 56 55
57 58 59 60 59 59 58 57 57 56 56 54 54 53 52 50 47 46 44 46 45 48 50 49 51 51 52 53 53 53 53 54 54 53 53 54 57 56 54 54 55 54 54
56 58 58 59 59 58 57 56 56 56 55 54 54 51 49 46 43 41 38 39 42 46 49 49 50 50 50 50 50 49 50 50 50 50 50 49 50 54 53 53 53 53 53
56 58 58 58 59 57 55 55 55 54 55 54 54 51 48 42 36 32 32 34 40 47 49 49 50 50 49 48 47 46 46 47 47 47 47 46 46 47 50 52 51 51 52
55 57 59 58 58 57 54 53 54 54 53 51 51 50 48 44 38 30 30 31 41 45 48 48 49 49 47 44 40 39 40 40 42 42 42 42 43 44 46 49 49 49 49
54 56 57 57 57 57 55 51 52 52 50 49 48 47 46 42 36 29 28 32 40 42 46 48 47 47 44 40 34 32 32 31 34 36 35 34 32 36 39 41 42 46 48
54 55 57 57 56 55 53 49 49 49 48 47 47 45 44 40 35 31 29 30 38 42 45 45 44 41 39 38 35 30 27 27 26 29 28 27 26 27 31 34 38 41 43
44 55 56 56 55 54 53 52 50 49 47 47 45 43 42 38 34 29 28 30 34 40 43 43 43 42 41 43 42 40 34 29 25 23 22 20 20 20 21 22 26 29 36
35 37 46 56 54 54 54 52 46 44 46 44 43 40 37 34 31 27 28 28 32 39 41 43 44 43 40 32 38 29 29 30 25 23 21 19 20 20 20 21 22 27 30
31 34 37 44 54 53 51 49 45 46 43 44 43 39 34 31 29 30 30 29 31 36 40 41 41 42 41 32 29 24 26 22 24 19 22 21 20 18 21 20 21 23 24
30 32 35 40 54 52 49 48 48 48 48 43 41 38 32 32 30 30 30 29 29 32 36 36 35 36 36 29 31 26 24 24 24 23 19 20 20 21 21 21 22 21 23
28 30 32 36 52 49 50 48 48 47 44 38 37 36 33 32 32 30 28 29 29 28 31 34 31 31 30 27 25 24 22 22 21 21 20 20 19 20 21 21 21 22 23
Lifted_Index
-0 -1 -1 -2 -2 -2 -3 -4 -4 -4 -4 -4 -4 -4 -4 -4 -5 -5 -5 -4 -4 -5 -5 -4 -4 -4 -4 -4 -4 -4 -4 -3 -3 -3 -3 -4 -4 -4 -4 -4 -3 -3 -4
-0 -1 -1 -1 -2 -2 -3 -4 -4 -4 -4 -4 -3 -3 -3 -4 -4 -5 -5 -5 -5 -5 -5 -4 -4 -4 -4 -4 -4 -4 -4 -4 -3 -3 -3 -3 -4 -4 -4 -4 -4 -4 -4
-0 -1 -1 -1 -2 -2 -3 -4 -4 -4 -4 -4 -3 -3 -3 -3 -4 -4 -4 -4 -5 -5 -5 -4 -4 -4 -4 -4 -4 -4 -4 -4 -3 -3 -3 -3 -3 -4 -4 -4 -4 -4 -4
-0 -1 -1 -1 -1 -2 -3 -4 -4 -4 -4 -3 -3 -2 -3 -3 -3 -3 -3 -4 -4 -4 -4 -4 -4 -4 -4 -4 -4 -4 -4 -4 -3 -3 -3 -3 -3 -4 -4 -4 -4 -4 -4
-0 -0 -1 -1 -1 -2 -3 -3 -4 -4 -3 -3 -2 -2 -2 -3 -3 -2 -3 -3 -3 -4 -4 -4 -4 -4 -4 -4 -4 -4 -4 -3 -3 -3 -2 -3 -3 -4 -4 -4 -4 -4 -3
0 -0 -1 -1 -1 -2 -2 -3 -3 -3 -3 -2 -2 -2 -2 -3 -2 -2 -3 -3 -3 -3 -3 -3 -3 -3 -3 -3 -3 -3 -3 -3 -3 -3 -3 -3 -3 -4 -4 -4 -3 -3 -3
0 0 0 -0 -1 -1 -2 -2 -2 -2 -2 -2 -2 -2 -2 -2 -2 -2 -2 -2 -1 -2 -2 -2 -2 -2 -2 -3 -3 -2 -2 -2 -2 -3 -3 -3 -3 -3 -3 -3 -3 -3 -3
1 1 1 0 -0 -1 -1 -1 -1 -1 -2 -2 -1 -2 -2 -2 -2 -2 -2 -1 -1 -1 -1 -1 -1 -1 -1 -2 -2 -1 -1 -2 -2 -2 -3 -3 -3 -3 -3 -3 -2 -2 -2
1 1 1 1 -0 -1 -0 -0 -0 -1 -1 -1 -1 -1 -1 -1 -1 -1 -1 -1 -1 -1 -1 -1 -1 -1 -1 -1 -0 0 -0 -1 -2 -2 -2 -2 -2 -2 -2 -2 -2 -1 -1
1 1 0 0 -0 -0 0 1 0 -0 -0 -0 0 0 -0 0 0 0 -0 -1 -1 -1 -1 -1 -1 -1 -0 0 1 1 1 -0 -1 -1 -2 -1 -1 -1 -1 -1 -1 -0 -0
1 1 1 0 0 0 1 1 1 1 1 1 1 1 1 1 1 1 1 0 -1 -1 -1 -1 -1 -0 0 1 1 1 1 0 -0 -1 -1 -0 -0 -0 0 1 1 1 1
1 1 1 1 1 1 1 1 1 2 2 2 2 2 2 2 2 1 1 1 0 -1 -0 -0 0 1 1 1 1 2 1 1 1 1 1 1 1 1 1 2 2 2 2
2 2 1 1 1 1 2 2 2 2 2 2 3 3 3 2 2 2 1 1 1 0 0 1 1 2 2 2 2 2 2 2 2 2 2 2 3 3 3 3 4 4 4
2 2 2 2 2 2 2 3 3 3 3 3 3 3 3 3 3 2 2 2 2 1 1 2 2 3 4 4 4 4 4 3 3 3 4 4 5 5 6 6 6 7 7
1 2 2 2 2 3 3 3 3 3 3 3 3 3 3 3 3 3 3 3 2 2 2 3 3 4 5 6 6 5 5 5 5 5 6 6 7 7 8 8 8 8 9
2 2 2 2 3 3 4 3 3 3 3 3 3 3 3 4 3 3 3 3 3 3 3 3 4 5 5 6 6 6 6 6 6 7 7 8 8 9 9 9 9 9 9
2 2 2 2 3 3 4 4 4 4 4 4 4 4 4 4 4 3 3 3 3 4 4 4 4 5 5 6 7 7 7 7 7 8 9 10 10 10 10 10 10 10 10
2 2 1 2 3 3 4 4 4 4 4 5 5 6 5 5 5 5 4 4 5 5 5 5 5 5 6 7 7 7 7 8 8 9 10 11 12 12 12 12 11 11 11
3 2 2 2 3 3 4 4 4 5 5 6 7 7 7 7 7 7 7 6 6 6 5 5 5 5 6 8 8 8 8 8 9 10 10 12 13 14 14 14 13 13 13
3 3 2 2 3 3 4 4 4 5 6 7 8 8 8 7 8 9 9 9 9 7 6 6 6 7 8 9 10 10 10 10 10 10 10 12 13 15 16 16 16 15 14
4 3 3 3 3 3 3 4 4 5 7 8 9 9 9 9 9 10 11 12 12 10 9 8 9 9 10 10 11 11 11 11 11 11 11 12 14 16 18 18 18 17 17
6 5 4 3 3 3 3 3 4 4 7 9 9 9 9 10 10 11 13 14 14 13 12 12 11 11 12 12 12 12 12 12 12 12 13 14 16 17 18 19 19 19 19
7 6 5 4 3 3 3 3 4 4 5 7 8 9 9 10 11 12 14 15 15 15 15 14 13 13 13 13 13 13 13 12 12 12 14 16 17 18 18 19 19 19 20
8 7 6 5 4 3 3 3 4 3 4 5 7 8 9 10 11 12 14 14 15 15 15 15 14 14 13 13 13 14 13 12 11 10 12 14 16 17 18 18 19 19 20
9 8 6 5 4 3 3 3 3 3 3 4 5 6 7 8 9 11 12 13 14 15 15 15 15 15 14 14 14 14 13 11 9 8 8 10 13 15 17 18 18 19 19
9 8 6 5 4 3 3 3 3 3 3 3 4 5 6 8 9 10 11 13 14 14 15 15 15 15 14 14 14 14 12 10 8 7 6 7 10 13 16 17 18 18 19